contact:dominique.lefevre@mio.osupytheas.fr, maurice.libes@osupytheas.fr, didier.mallarino@osupytheas.fr
Project:EMSO http://www.emso-fr.org/EMSO-France
Depth: 2436.0 m
Title:EMSO Ligure Ouest : Data MII capteur MICROCAT
DateTime_Computer,Latitude,Longitude,Temperature,Conductivity,Pressure,DateTime_Instrument
DateTime_Computer,Latitude,Longitude,degC,S m-1,dbar,DateTime_Instrument
2022-10-12T00:02:32Z,42.805,6.029,13.3011,4.60054,2470.577,2022-10-12T02:04:27Z
2022-10-12T00:05:35Z,42.805,6.029,13.3006,4.60054,2470.6,2022-10-12T02:07:30Z
2022-10-12T00:08:38Z,42.805,6.029,13.3006,4.60054,2470.591,2022-10-12T02:10:33Z
2022-10-12T00:11:41Z,42.805,6.029,13.3014,4.60054,2470.614,2022-10-12T02:13:36Z
2022-10-12T00:14:44Z,42.805,6.029,13.3009,4.60057,2470.553,2022-10-12T02:16:39Z
2022-10-12T00:17:47Z,42.805,6.029,13.3009,4.60055,2470.577,2022-10-12T02:19:42Z
2022-10-12T00:20:50Z,42.805,6.029,13.3012,4.60055,2470.577,2022-10-12T02:22:45Z
2022-10-12T00:23:54Z,42.805,6.029,13.3010,4.60055,2470.553,2022-10-12T02:25:48Z
2022-10-12T00:26:57Z,42.805,6.029,13.3009,4.60052,2470.577,2022-10-12T02:28:51Z
2022-10-12T00:30:00Z,42.805,6.029,13.3009,4.60053,2470.591,2022-10-12T02:31:55Z
2022-10-12T00:33:03Z,42.805,6.029,13.3009,4.60053,2470.577,2022-10-12T02:34:58Z
2022-10-12T00:36:06Z,42.805,6.029,13.3007,4.60052,2470.553,2022-10-12T02:38:01Z
2022-10-12T00:39:09Z,42.805,6.029,13.3006,4.60049,2470.577,2022-10-12T02:41:04Z
2022-10-12T00:42:12Z,42.805,6.029,13.3009,4.60050,2470.553,2022-10-12T02:44:07Z
2022-10-12T00:45:15Z,42.805,6.029,13.3005,4.60051,2470.577,2022-10-12T02:47:10Z
2022-10-12T00:48:18Z,42.805,6.029,13.3005,4.60051,2470.544,2022-10-12T02:50:13Z
2022-10-12T00:51:21Z,42.805,6.029,13.3007,4.60052,2470.53,2022-10-12T02:53:16Z
2022-10-12T00:54:24Z,42.805,6.029,13.3007,4.60052,2470.567,2022-10-12T02:56:19Z
2022-10-12T00:57:27Z,42.805,6.029,13.3005,4.60051,2470.53,2022-10-12T02:59:22Z
2022-10-12T01:00:30Z,42.805,6.029,13.3006,4.60059,2470.53,2022-10-12T03:02:25Z
2022-10-12T01:03:34Z,42.805,6.029,13.3009,4.60051,2470.553,2022-10-12T03:05:28Z
2022-10-12T01:06:37Z,42.805,6.029,13.3015,4.60052,2470.544,2022-10-12T03:08:31Z
2022-10-12T01:09:40Z,42.805,6.029,13.3008,4.60054,2470.553,2022-10-12T03:11:35Z
2022-10-12T01:12:43Z,42.805,6.029,13.3007,4.60052,2470.553,2022-10-12T03:14:38Z
2022-10-12T01:15:46Z,42.805,6.029,13.3006,4.60052,2470.577,2022-10-12T03:17:41Z
2022-10-12T01:18:49Z,42.805,6.029,13.3011,4.60052,2470.553,2022-10-12T03:20:44Z
2022-10-12T01:21:52Z,42.805,6.029,13.3008,4.60052,2470.553,2022-10-12T03:23:47Z
2022-10-12T01:24:55Z,42.805,6.029,13.3006,4.60052,2470.567,2022-10-12T03:26:50Z
2022-10-12T01:27:58Z,42.805,6.029,13.3011,4.60054,2470.516,2022-10-12T03:29:53Z
2022-10-12T01:31:01Z,42.805,6.029,13.3009,4.60052,2470.53,2022-10-12T03:32:56Z
2022-10-12T01:34:04Z,42.805,6.029,13.3008,4.60052,2470.567,2022-10-12T03:35:59Z
2022-10-12T01:37:07Z,42.805,6.029,13.3008,4.60052,2470.567,2022-10-12T03:39:02Z
2022-10-12T01:40:10Z,42.805,6.029,13.3009,4.60050,2470.53,2022-10-12T03:42:05Z
2022-10-12T01:43:14Z,42.805,6.029,13.3013,4.60049,2470.553,2022-10-12T03:45:08Z
2022-10-12T01:46:17Z,42.805,6.029,13.3008,4.60050,2470.53,2022-10-12T03:48:11Z
2022-10-12T01:49:20Z,42.805,6.029,13.3009,4.60053,2470.567,2022-10-12T03:51:15Z
2022-10-12T01:52:23Z,42.805,6.029,13.3012,4.60051,2470.53,2022-10-12T03:54:18Z
2022-10-12T01:55:26Z,42.805,6.029,13.3008,4.60051,2470.544,2022-10-12T03:57:21Z
2022-10-12T01:58:29Z,42.805,6.029,13.3007,4.60052,2470.553,2022-10-12T04:00:24Z
2022-10-12T02:01:32Z,42.805,6.029,13.3012,4.60051,2470.53,2022-10-12T04:03:27Z
2022-10-12T02:04:35Z,42.805,6.029,13.3011,4.60050,2470.553,2022-10-12T04:06:30Z
2022-10-12T02:07:38Z,42.805,6.029,13.3010,4.60053,2470.53,2022-10-12T04:09:33Z
2022-10-12T02:10:41Z,42.805,6.029,13.3014,4.60054,2470.507,2022-10-12T04:12:36Z
2022-10-12T02:13:44Z,42.805,6.029,13.3009,4.60055,2470.544,2022-10-12T04:15:39Z
2022-10-12T02:16:47Z,42.805,6.029,13.3009,4.60052,2470.544,2022-10-12T04:18:42Z
2022-10-12T02:19:51Z,42.805,6.029,13.3006,4.60051,2470.53,2022-10-12T04:21:45Z
2022-10-12T02:22:54Z,42.805,6.029,13.3011,4.60051,2470.507,2022-10-12T04:24:48Z
2022-10-12T02:25:57Z,42.805,6.029,13.3007,4.60051,2470.507,2022-10-12T04:27:52Z
2022-10-12T02:29:00Z,42.805,6.029,13.3007,4.60051,2470.507,2022-10-12T04:30:55Z
2022-10-12T02:32:03Z,42.805,6.029,13.3007,4.60051,2470.544,2022-10-12T04:33:58Z
2022-10-12T02:35:06Z,42.805,6.029,13.3006,4.60049,2470.544,2022-10-12T04:37:01Z
2022-10-12T02:38:09Z,42.805,6.029,13.3009,4.60050,2470.553,2022-10-12T04:40:04Z
2022-10-12T02:41:12Z,42.805,6.029,13.3011,4.60049,2470.544,2022-10-12T04:43:07Z
2022-10-12T02:44:15Z,42.805,6.029,13.3006,4.60050,2470.52,2022-10-12T04:46:10Z
2022-10-12T02:47:18Z,42.805,6.029,13.3015,4.60049,2470.53,2022-10-12T04:49:13Z
2022-10-12T02:50:21Z,42.805,6.029,13.3009,4.60052,2470.507,2022-10-12T04:52:16Z
2022-10-12T02:53:24Z,42.805,6.029,13.3010,4.60050,2470.507,2022-10-12T04:55:19Z
2022-10-12T02:56:27Z,42.805,6.029,13.3008,4.60052,2470.567,2022-10-12T04:58:22Z
2022-10-12T02:59:31Z,42.805,6.029,13.3012,4.60052,2470.544,2022-10-12T05:01:25Z
2022-10-12T03:02:34Z,42.805,6.029,13.3011,4.60051,2470.544,2022-10-12T05:04:28Z
2022-10-12T03:05:37Z,42.805,6.029,13.3010,4.60054,2470.507,2022-10-12T05:07:32Z
2022-10-12T03:08:40Z,42.805,6.029,13.3008,4.60052,2470.53,2022-10-12T05:10:35Z
2022-10-12T03:11:43Z,42.805,6.029,13.3008,4.60053,2470.553,2022-10-12T05:13:38Z
2022-10-12T03:14:46Z,42.805,6.029,13.3011,4.60051,2470.544,2022-10-12T05:16:41Z
2022-10-12T03:17:49Z,42.805,6.029,13.3009,4.60054,2470.483,2022-10-12T05:19:44Z
2022-10-12T03:20:52Z,42.805,6.029,13.3009,4.60051,2470.52,2022-10-12T05:22:47Z
2022-10-12T03:23:55Z,42.805,6.029,13.3011,4.60057,2470.493,2022-10-12T05:25:50Z
2022-10-12T03:26:58Z,42.805,6.029,13.3009,4.60051,2470.507,2022-10-12T05:28:53Z
2022-10-12T03:30:01Z,42.805,6.029,13.3008,4.60051,2470.553,2022-10-12T05:31:56Z
2022-10-12T03:33:04Z,42.805,6.029,13.3009,4.60050,2470.544,2022-10-12T05:34:59Z
2022-10-12T03:36:07Z,42.805,6.029,13.3006,4.60049,2470.507,2022-10-12T05:38:02Z
2022-10-12T03:39:11Z,42.805,6.029,13.3009,4.60050,2470.553,2022-10-12T05:41:05Z
2022-10-12T03:42:14Z,42.805,6.029,13.3012,4.60057,2470.52,2022-10-12T05:44:08Z
2022-10-12T03:45:17Z,42.805,6.029,13.3008,4.60052,2470.544,2022-10-12T05:47:12Z
2022-10-12T03:48:20Z,42.805,6.029,13.3009,4.60049,2470.53,2022-10-12T05:50:15Z
2022-10-12T03:51:23Z,42.805,6.029,13.3010,4.60049,2470.53,2022-10-12T05:53:18Z
2022-10-12T03:54:26Z,42.805,6.029,13.3011,4.60049,2470.53,2022-10-12T05:56:21Z
2022-10-12T03:57:29Z,42.805,6.029,13.3009,4.60049,2470.544,2022-10-12T05:59:24Z
2022-10-12T04:00:32Z,42.805,6.029,13.3013,4.60050,2470.52,2022-10-12T06:02:27Z
2022-10-12T04:03:35Z,42.805,6.029,13.3009,4.60052,2470.577,2022-10-12T06:05:30Z
2022-10-12T04:06:38Z,42.805,6.029,13.3013,4.60049,2470.507,2022-10-12T06:08:33Z
2022-10-12T04:09:41Z,42.805,6.029,13.3009,4.60051,2470.507,2022-10-12T06:11:36Z
2022-10-12T04:12:44Z,42.805,6.029,13.3011,4.60049,2470.544,2022-10-12T06:14:39Z
2022-10-12T04:15:47Z,42.805,6.029,13.3011,4.60049,2470.553,2022-10-12T06:17:42Z
2022-10-12T04:18:51Z,42.805,6.029,13.3011,4.60056,2470.553,2022-10-12T06:20:45Z
2022-10-12T04:21:54Z,42.805,6.029,13.3009,4.60052,2470.53,2022-10-12T06:23:48Z
2022-10-12T04:24:57Z,42.805,6.029,13.3011,4.60052,2470.553,2022-10-12T06:26:52Z
2022-10-12T04:28:00Z,42.805,6.029,13.3009,4.60052,2470.591,2022-10-12T06:29:55Z
2022-10-12T04:31:03Z,42.805,6.029,13.3006,4.60050,2470.591,2022-10-12T06:32:58Z
2022-10-12T04:34:06Z,42.805,6.029,13.3010,4.60049,2470.591,2022-10-12T06:36:01Z
2022-10-12T04:37:09Z,42.805,6.029,13.3006,4.60054,2470.553,2022-10-12T06:39:04Z
2022-10-12T04:40:12Z,42.805,6.029,13.3010,4.60053,2470.53,2022-10-12T06:42:07Z
2022-10-12T04:43:15Z,42.805,6.029,13.3009,4.60052,2470.577,2022-10-12T06:45:10Z
2022-10-12T04:46:18Z,42.805,6.029,13.3009,4.60049,2470.553,2022-10-12T06:48:13Z
2022-10-12T04:49:21Z,42.805,6.029,13.3009,4.60050,2470.567,2022-10-12T06:51:16Z
2022-10-12T04:52:24Z,42.805,6.029,13.3011,4.60052,2470.567,2022-10-12T06:54:19Z
2022-10-12T04:55:27Z,42.805,6.029,13.3011,4.60051,2470.591,2022-10-12T06:57:22Z
2022-10-12T04:58:31Z,42.805,6.029,13.3005,4.60053,2470.553,2022-10-12T07:00:25Z
2022-10-12T05:01:34Z,42.805,6.029,13.3007,4.60053,2470.577,2022-10-12T07:03:29Z
2022-10-12T05:04:37Z,42.805,6.029,13.3010,4.60050,2470.6,2022-10-12T07:06:32Z
2022-10-12T05:07:40Z,42.805,6.029,13.3011,4.60053,2470.577,2022-10-12T07:09:35Z
2022-10-12T05:10:43Z,42.805,6.029,13.3011,4.60053,2470.591,2022-10-12T07:12:38Z
2022-10-12T05:13:46Z,42.805,6.029,13.3011,4.60054,2470.577,2022-10-12T07:15:41Z
2022-10-12T05:16:49Z,42.805,6.029,13.3011,4.60050,2470.6,2022-10-12T07:18:44Z
2022-10-12T05:19:52Z,42.805,6.029,13.3010,4.60051,2470.563,2022-10-12T07:21:47Z
2022-10-12T05:22:55Z,42.805,6.029,13.3011,4.60049,2470.6,2022-10-12T07:24:50Z
2022-10-12T05:25:58Z,42.805,6.029,13.3010,4.60052,2470.637,2022-10-12T07:27:53Z
2022-10-12T05:29:01Z,42.805,6.029,13.3012,4.60052,2470.6,2022-10-12T07:30:56Z
2022-10-12T05:32:04Z,42.805,6.029,13.3006,4.60052,2470.624,2022-10-12T07:33:59Z
2022-10-12T05:35:07Z,42.805,6.029,13.3011,4.60049,2470.577,2022-10-12T07:37:02Z
2022-10-12T05:38:11Z,42.805,6.029,13.3009,4.60051,2470.6,2022-10-12T07:40:05Z
2022-10-12T05:41:14Z,42.805,6.029,13.3009,4.60051,2470.624,2022-10-12T07:43:08Z
2022-10-12T05:44:17Z,42.805,6.029,13.3009,4.60052,2470.633,2022-10-12T07:46:12Z
2022-10-12T05:47:20Z,42.805,6.029,13.3009,4.60051,2470.624,2022-10-12T07:49:15Z
2022-10-12T05:50:23Z,42.805,6.029,13.3011,4.60052,2470.646,2022-10-12T07:52:18Z
2022-10-12T05:53:26Z,42.805,6.029,13.3009,4.60052,2470.637,2022-10-12T07:55:21Z
2022-10-12T05:56:29Z,42.805,6.029,13.3014,4.60052,2470.646,2022-10-12T07:58:24Z
2022-10-12T05:59:32Z,42.805,6.029,13.3011,4.60049,2470.67,2022-10-12T08:01:27Z
2022-10-12T06:02:35Z,42.805,6.029,13.3006,4.60050,2470.646,2022-10-12T08:04:30Z
2022-10-12T06:05:38Z,42.805,6.029,13.3010,4.60054,2470.67,2022-10-12T08:07:33Z
2022-10-12T06:08:41Z,42.805,6.029,13.3011,4.60053,2470.661,2022-10-12T08:10:36Z
2022-10-12T06:11:44Z,42.805,6.029,13.3008,4.60051,2470.684,2022-10-12T08:13:39Z
2022-10-12T06:14:48Z,42.805,6.029,13.3012,4.60052,2470.637,2022-10-12T08:16:42Z
2022-10-12T06:17:51Z,42.805,6.029,13.3011,4.60051,2470.67,2022-10-12T08:19:45Z
2022-10-12T06:20:54Z,42.805,6.029,13.3009,4.60051,2470.67,2022-10-12T08:22:49Z
2022-10-12T06:23:57Z,42.805,6.029,13.3011,4.60051,2470.693,2022-10-12T08:25:52Z
2022-10-12T06:27:00Z,42.805,6.029,13.3012,4.60051,2470.656,2022-10-12T08:28:55Z
2022-10-12T06:30:03Z,42.805,6.029,13.3008,4.60053,2470.67,2022-10-12T08:31:58Z
2022-10-12T06:33:06Z,42.805,6.029,13.3007,4.60049,2470.693,2022-10-12T08:35:01Z
2022-10-12T06:36:09Z,42.805,6.029,13.3004,4.60049,2470.693,2022-10-12T08:38:04Z
2022-10-12T06:39:12Z,42.805,6.029,13.3008,4.60054,2470.693,2022-10-12T08:41:07Z
2022-10-12T06:42:15Z,42.805,6.029,13.3009,4.60053,2470.717,2022-10-12T08:44:10Z
2022-10-12T06:45:18Z,42.805,6.029,13.3011,4.60052,2470.717,2022-10-12T08:47:13Z
2022-10-12T06:48:21Z,42.805,6.029,13.3012,4.60051,2470.693,2022-10-12T08:50:16Z
2022-10-12T06:51:24Z,42.805,6.029,13.3008,4.60050,2470.693,2022-10-12T08:53:19Z
2022-10-12T06:54:28Z,42.805,6.029,13.3009,4.60051,2470.684,2022-10-12T08:56:22Z
2022-10-12T06:57:31Z,42.805,6.029,13.3008,4.60050,2470.717,2022-10-12T08:59:26Z
2022-10-12T07:00:34Z,42.805,6.029,13.3009,4.60049,2470.74,2022-10-12T09:02:29Z
2022-10-12T07:03:37Z,42.805,6.029,13.3011,4.60051,2470.74,2022-10-12T09:05:32Z
2022-10-12T07:06:40Z,42.805,6.029,13.3006,4.60050,2470.693,2022-10-12T09:08:35Z
2022-10-12T07:09:43Z,42.805,6.029,13.3008,4.60052,2470.73,2022-10-12T09:11:38Z
2022-10-12T07:12:46Z,42.805,6.029,13.3007,4.60053,2470.717,2022-10-12T09:14:41Z
2022-10-12T07:15:49Z,42.805,6.029,13.3009,4.60053,2470.754,2022-10-12T09:17:44Z
2022-10-12T07:18:52Z,42.805,6.029,13.3010,4.60051,2470.74,2022-10-12T09:20:47Z
2022-10-12T07:21:55Z,42.805,6.029,13.3009,4.60051,2470.754,2022-10-12T09:23:50Z
2022-10-12T07:24:58Z,42.805,6.029,13.3009,4.60051,2470.73,2022-10-12T09:26:53Z
2022-10-12T07:28:01Z,42.805,6.029,13.3009,4.60052,2470.717,2022-10-12T09:29:56Z
2022-10-12T07:31:05Z,42.805,6.029,13.3010,4.60050,2470.73,2022-10-12T09:32:59Z
2022-10-12T07:34:08Z,42.805,6.029,13.3009,4.60051,2470.74,2022-10-12T09:36:02Z
2022-10-12T07:37:11Z,42.805,6.029,13.3012,4.60051,2470.74,2022-10-12T09:39:06Z
2022-10-12T07:40:14Z,42.805,6.029,13.3009,4.60054,2470.74,2022-10-12T09:42:09Z
2022-10-12T07:43:17Z,42.805,6.029,13.3007,4.60051,2470.74,2022-10-12T09:45:12Z
2022-10-12T07:46:20Z,42.805,6.029,13.3011,4.60052,2470.74,2022-10-12T09:48:15Z
2022-10-12T07:49:23Z,42.805,6.029,13.3012,4.60057,2470.693,2022-10-12T09:51:18Z
2022-10-12T07:52:26Z,42.805,6.029,13.3011,4.60052,2470.73,2022-10-12T09:54:21Z
2022-10-12T07:55:29Z,42.805,6.029,13.3010,4.60054,2470.754,2022-10-12T09:57:24Z
2022-10-12T07:58:32Z,42.805,6.029,13.3009,4.60054,2470.777,2022-10-12T10:00:27Z
2022-10-12T08:01:35Z,42.805,6.029,13.3011,4.60053,2470.74,2022-10-12T10:03:30Z
2022-10-12T08:04:38Z,42.805,6.029,13.3011,4.60052,2470.787,2022-10-12T10:06:33Z
2022-10-12T08:07:41Z,42.805,6.029,13.3013,4.60054,2470.717,2022-10-12T10:09:36Z
2022-10-12T08:10:45Z,42.805,6.029,13.3011,4.60051,2470.763,2022-10-12T10:12:39Z
2022-10-12T08:13:48Z,42.805,6.029,13.3011,4.60051,2470.763,2022-10-12T10:15:43Z
2022-10-12T08:16:51Z,42.805,6.029,13.3011,4.60051,2470.763,2022-10-12T10:18:46Z
2022-10-12T08:19:54Z,42.805,6.029,13.3010,4.60057,2470.777,2022-10-12T10:21:49Z
2022-10-12T08:22:57Z,42.805,6.029,13.3005,4.60052,2470.74,2022-10-12T10:24:52Z
2022-10-12T08:26:00Z,42.805,6.029,13.3014,4.60052,2470.763,2022-10-12T10:27:55Z
2022-10-12T08:29:03Z,42.805,6.029,13.3008,4.60052,2470.763,2022-10-12T10:30:58Z
2022-10-12T08:32:06Z,42.805,6.029,13.3015,4.60051,2470.74,2022-10-12T10:34:01Z
2022-10-12T08:35:09Z,42.805,6.029,13.3011,4.60054,2470.74,2022-10-12T10:37:04Z
2022-10-12T08:38:12Z,42.805,6.029,13.3009,4.60053,2470.763,2022-10-12T10:40:07Z
2022-10-12T08:41:15Z,42.805,6.029,13.3009,4.60054,2470.74,2022-10-12T10:43:10Z
2022-10-12T08:44:18Z,42.805,6.029,13.3010,4.60051,2470.763,2022-10-12T10:46:13Z
2022-10-12T08:47:22Z,42.805,6.029,13.3011,4.60056,2470.74,2022-10-12T10:49:16Z
2022-10-12T08:50:25Z,42.805,6.029,13.3008,4.60057,2470.73,2022-10-12T10:52:19Z
2022-10-12T08:53:28Z,42.805,6.029,13.3009,4.60052,2470.787,2022-10-12T10:55:23Z
2022-10-12T08:56:31Z,42.805,6.029,13.3009,4.60052,2470.787,2022-10-12T10:58:26Z
2022-10-12T08:59:34Z,42.805,6.029,13.3009,4.60050,2470.754,2022-10-12T11:01:29Z
2022-10-12T09:02:37Z,42.805,6.029,13.3008,4.60052,2470.717,2022-10-12T11:04:32Z
2022-10-12T09:05:40Z,42.805,6.029,13.3010,4.60051,2470.74,2022-10-12T11:07:35Z
2022-10-12T09:08:43Z,42.805,6.029,13.3009,4.60051,2470.754,2022-10-12T11:10:38Z
2022-10-12T09:11:46Z,42.805,6.029,13.3009,4.60051,2470.787,2022-10-12T11:13:41Z
2022-10-12T09:14:49Z,42.805,6.029,13.3012,4.60051,2470.763,2022-10-12T11:16:44Z
2022-10-12T09:17:52Z,42.805,6.029,13.3012,4.60052,2470.763,2022-10-12T11:19:47Z
2022-10-12T09:20:55Z,42.805,6.029,13.3011,4.60051,2470.74,2022-10-12T11:22:50Z
2022-10-12T09:23:59Z,42.805,6.029,13.3007,4.60052,2470.707,2022-10-12T11:25:53Z
2022-10-12T09:27:02Z,42.805,6.029,13.3011,4.60051,2470.754,2022-10-12T11:28:57Z
2022-10-12T09:30:05Z,42.805,6.029,13.3009,4.60052,2470.74,2022-10-12T11:32:00Z
2022-10-12T09:33:08Z,42.805,6.029,13.3010,4.60052,2470.703,2022-10-12T11:35:03Z
2022-10-12T09:36:11Z,42.805,6.029,13.3004,4.60052,2470.73,2022-10-12T11:38:06Z
2022-10-12T09:39:14Z,42.805,6.029,13.3011,4.60052,2470.73,2022-10-12T11:41:09Z
2022-10-12T09:42:17Z,42.805,6.029,13.3011,4.60052,2470.74,2022-10-12T11:44:12Z
2022-10-12T09:45:20Z,42.805,6.029,13.3012,4.60052,2470.74,2022-10-12T11:47:15Z
2022-10-12T09:48:23Z,42.805,6.029,13.3007,4.60052,2470.693,2022-10-12T11:50:18Z
2022-10-12T09:51:26Z,42.805,6.029,13.3011,4.60052,2470.73,2022-10-12T11:53:21Z
2022-10-12T09:54:29Z,42.805,6.029,13.3009,4.60051,2470.717,2022-10-12T11:56:24Z
2022-10-12T09:57:32Z,42.805,6.029,13.3007,4.60054,2470.717,2022-10-12T11:59:27Z
2022-10-12T10:00:36Z,42.805,6.029,13.3010,4.60052,2470.74,2022-10-12T12:02:30Z
2022-10-12T10:03:39Z,42.805,6.029,13.3010,4.60052,2470.717,2022-10-12T12:05:33Z
2022-10-12T10:06:42Z,42.805,6.029,13.3012,4.60054,2470.717,2022-10-12T12:08:37Z
2022-10-12T10:09:45Z,42.805,6.029,13.3010,4.60053,2470.707,2022-10-12T12:11:40Z
2022-10-12T10:12:48Z,42.805,6.029,13.3010,4.60055,2470.73,2022-10-12T12:14:43Z
2022-10-12T10:15:51Z,42.805,6.029,13.3010,4.60050,2470.74,2022-10-12T12:17:46Z
2022-10-12T10:18:54Z,42.805,6.029,13.3006,4.60056,2470.73,2022-10-12T12:20:49Z
2022-10-12T10:21:57Z,42.805,6.029,13.3010,4.60052,2470.67,2022-10-12T12:23:52Z
2022-10-12T10:25:00Z,42.805,6.029,13.3007,4.60054,2470.74,2022-10-12T12:26:55Z
2022-10-12T10:28:03Z,42.805,6.029,13.3007,4.60054,2470.73,2022-10-12T12:29:58Z
2022-10-12T10:31:06Z,42.805,6.029,13.3012,4.60052,2470.717,2022-10-12T12:33:01Z
2022-10-12T10:34:09Z,42.805,6.029,13.3009,4.60052,2470.693,2022-10-12T12:36:04Z
2022-10-12T10:37:13Z,42.805,6.029,13.3007,4.60052,2470.693,2022-10-12T12:39:07Z
2022-10-12T10:40:16Z,42.805,6.029,13.3012,4.60051,2470.703,2022-10-12T12:42:10Z
2022-10-12T10:43:19Z,42.805,6.029,13.3015,4.60057,2470.67,2022-10-12T12:45:14Z
2022-10-12T10:46:22Z,42.805,6.029,13.3009,4.60052,2470.67,2022-10-12T12:48:17Z
2022-10-12T10:49:25Z,42.805,6.029,13.3008,4.60052,2470.684,2022-10-12T12:51:20Z
2022-10-12T10:52:28Z,42.805,6.029,13.3012,4.60051,2470.693,2022-10-12T12:54:23Z
2022-10-12T10:55:31Z,42.805,6.029,13.3009,4.60055,2470.693,2022-10-12T12:57:26Z
2022-10-12T10:58:34Z,42.805,6.029,13.3009,4.60053,2470.693,2022-10-12T13:00:29Z
2022-10-12T11:01:37Z,42.805,6.029,13.3010,4.60053,2470.693,2022-10-12T13:03:32Z
2022-10-12T11:04:40Z,42.805,6.029,13.3009,4.60054,2470.693,2022-10-12T13:06:35Z
2022-10-12T11:07:43Z,42.805,6.029,13.3008,4.60052,2470.693,2022-10-12T13:09:38Z
2022-10-12T11:10:46Z,42.805,6.029,13.3009,4.60054,2470.684,2022-10-12T13:12:41Z
2022-10-12T11:13:49Z,42.805,6.029,13.3010,4.60054,2470.633,2022-10-12T13:15:44Z
2022-10-12T11:16:53Z,42.805,6.029,13.3007,4.60052,2470.693,2022-10-12T13:18:47Z
2022-10-12T11:19:56Z,42.805,6.029,13.3009,4.60054,2470.67,2022-10-12T13:21:51Z
2022-10-12T11:22:59Z,42.805,6.029,13.3012,4.60053,2470.646,2022-10-12T13:24:54Z
2022-10-12T11:26:02Z,42.805,6.029,13.3010,4.60053,2470.67,2022-10-12T13:27:57Z
2022-10-12T11:29:05Z,42.805,6.029,13.3009,4.60053,2470.646,2022-10-12T13:31:00Z
2022-10-12T11:32:08Z,42.805,6.029,13.3009,4.60052,2470.646,2022-10-12T13:34:03Z
2022-10-12T11:35:11Z,42.805,6.029,13.3010,4.60052,2470.67,2022-10-12T13:37:06Z
2022-10-12T11:38:14Z,42.805,6.029,13.3011,4.60053,2470.646,2022-10-12T13:40:09Z
2022-10-12T11:41:17Z,42.805,6.029,13.3009,4.60053,2470.67,2022-10-12T13:43:12Z
2022-10-12T11:44:20Z,42.805,6.029,13.3010,4.60052,2470.633,2022-10-12T13:46:15Z
2022-10-12T11:47:23Z,42.805,6.029,13.3014,4.60054,2470.633,2022-10-12T13:49:18Z
2022-10-12T11:50:27Z,42.805,6.029,13.3012,4.60052,2470.661,2022-10-12T13:52:21Z
2022-10-12T11:53:30Z,42.805,6.029,13.3009,4.60053,2470.624,2022-10-12T13:55:24Z
2022-10-12T11:56:33Z,42.805,6.029,13.3011,4.60053,2470.661,2022-10-12T13:58:28Z
2022-10-12T11:59:36Z,42.805,6.029,13.3012,4.60053,2470.6,2022-10-12T14:01:31Z
2022-10-12T12:02:39Z,42.805,6.029,13.3011,4.60052,2470.624,2022-10-12T14:04:34Z
2022-10-12T12:05:42Z,42.805,6.029,13.3014,4.60057,2470.6,2022-10-12T14:07:37Z
2022-10-12T12:08:45Z,42.805,6.029,13.3014,4.60052,2470.637,2022-10-12T14:10:40Z
2022-10-12T12:11:48Z,42.805,6.029,13.3013,4.60053,2470.614,2022-10-12T14:13:43Z
2022-10-12T12:14:51Z,42.805,6.029,13.3013,4.60054,2470.624,2022-10-12T14:16:46Z
2022-10-12T12:17:54Z,42.805,6.029,13.3011,4.60056,2470.646,2022-10-12T14:19:49Z
2022-10-12T12:20:57Z,42.805,6.029,13.3008,4.60052,2470.624,2022-10-12T14:22:52Z
2022-10-12T12:24:00Z,42.805,6.029,13.3012,4.60054,2470.624,2022-10-12T14:25:55Z
2022-10-12T12:27:03Z,42.805,6.029,13.3014,4.60055,2470.637,2022-10-12T14:28:58Z
2022-10-12T12:30:07Z,42.805,6.029,13.3010,4.60052,2470.6,2022-10-12T14:32:01Z
2022-10-12T12:33:10Z,42.805,6.029,13.3013,4.60054,2470.6,2022-10-12T14:35:05Z
2022-10-12T12:36:13Z,42.805,6.029,13.3006,4.60058,2470.624,2022-10-12T14:38:08Z
2022-10-12T12:39:16Z,42.805,6.029,13.3017,4.60054,2470.614,2022-10-12T14:41:11Z
2022-10-12T12:42:19Z,42.805,6.029,13.3010,4.60054,2470.6,2022-10-12T14:44:14Z
2022-10-12T12:45:22Z,42.805,6.029,13.3014,4.60053,2470.6,2022-10-12T14:47:17Z
2022-10-12T12:48:25Z,42.805,6.029,13.3013,4.60056,2470.614,2022-10-12T14:50:20Z
2022-10-12T12:51:28Z,42.805,6.029,13.3011,4.60054,2470.6,2022-10-12T14:53:23Z
2022-10-12T12:54:31Z,42.805,6.029,13.3013,4.60054,2470.624,2022-10-12T14:56:26Z
2022-10-12T12:57:34Z,42.805,6.029,13.3013,4.60052,2470.614,2022-10-12T14:59:29Z
2022-10-12T13:00:37Z,42.805,6.029,13.3005,4.60052,2470.624,2022-10-12T15:02:32Z
2022-10-12T13:03:41Z,42.805,6.029,13.3006,4.60053,2470.591,2022-10-12T15:05:35Z
2022-10-12T13:06:44Z,42.805,6.029,13.3012,4.60052,2470.6,2022-10-12T15:08:38Z
2022-10-12T13:09:47Z,42.805,6.029,13.3011,4.60052,2470.577,2022-10-12T15:11:42Z
2022-10-12T13:12:50Z,42.805,6.029,13.3013,4.60053,2470.624,2022-10-12T15:14:45Z
2022-10-12T13:15:53Z,42.805,6.029,13.3010,4.60054,2470.6,2022-10-12T15:17:48Z
2022-10-12T13:18:56Z,42.805,6.029,13.3013,4.60054,2470.614,2022-10-12T15:20:51Z
2022-10-12T13:21:59Z,42.805,6.029,13.3014,4.60053,2470.6,2022-10-12T15:23:54Z
2022-10-12T13:25:02Z,42.805,6.029,13.3013,4.60056,2470.591,2022-10-12T15:26:57Z
2022-10-12T13:28:05Z,42.805,6.029,13.3008,4.60063,2470.577,2022-10-12T15:30:00Z
2022-10-12T13:31:08Z,42.805,6.029,13.3011,4.60054,2470.577,2022-10-12T15:33:03Z
2022-10-12T13:34:11Z,42.805,6.029,13.3013,4.60053,2470.591,2022-10-12T15:36:06Z
2022-10-12T13:37:14Z,42.805,6.029,13.3012,4.60053,2470.614,2022-10-12T15:39:09Z
2022-10-12T13:40:17Z,42.805,6.029,13.3016,4.60054,2470.577,2022-10-12T15:42:12Z
2022-10-12T13:43:21Z,42.805,6.029,13.3011,4.60055,2470.577,2022-10-12T15:45:15Z
2022-10-12T13:46:24Z,42.805,6.029,13.3012,4.60054,2470.614,2022-10-12T15:48:19Z
2022-10-12T13:49:27Z,42.805,6.029,13.3012,4.60053,2470.577,2022-10-12T15:51:22Z
2022-10-12T13:52:30Z,42.805,6.029,13.3015,4.60054,2470.577,2022-10-12T15:54:25Z
2022-10-12T13:55:33Z,42.805,6.029,13.3014,4.60054,2470.591,2022-10-12T15:57:28Z
2022-10-12T13:58:36Z,42.805,6.029,13.3015,4.60055,2470.6,2022-10-12T16:00:31Z
2022-10-12T14:01:39Z,42.805,6.029,13.3014,4.60056,2470.553,2022-10-12T16:03:34Z
2022-10-12T14:04:42Z,42.805,6.029,13.3011,4.60057,2470.577,2022-10-12T16:06:37Z
2022-10-12T14:07:45Z,42.805,6.029,13.3014,4.60057,2470.553,2022-10-12T16:09:40Z
2022-10-12T14:10:48Z,42.805,6.029,13.3017,4.60059,2470.6,2022-10-12T16:12:43Z
2022-10-12T14:13:51Z,42.805,6.029,13.3015,4.60058,2470.553,2022-10-12T16:15:46Z
2022-10-12T14:16:54Z,42.805,6.029,13.3015,4.60058,2470.591,2022-10-12T16:18:49Z
2022-10-12T14:19:58Z,42.805,6.029,13.3017,4.60059,2470.577,2022-10-12T16:21:52Z
2022-10-12T14:23:01Z,42.805,6.029,13.3021,4.60060,2470.577,2022-10-12T16:24:56Z
2022-10-12T14:26:04Z,42.805,6.029,13.3016,4.60059,2470.6,2022-10-12T16:27:59Z
2022-10-12T14:29:07Z,42.805,6.029,13.3016,4.60060,2470.591,2022-10-12T16:31:02Z
2022-10-12T14:32:10Z,42.805,6.029,13.3018,4.60069,2470.553,2022-10-12T16:34:05Z
2022-10-12T14:35:13Z,42.805,6.029,13.3019,4.60062,2470.577,2022-10-12T16:37:08Z
2022-10-12T14:38:16Z,42.805,6.029,13.3022,4.60059,2470.6,2022-10-12T16:40:11Z
2022-10-12T14:41:19Z,42.805,6.029,13.3020,4.60061,2470.553,2022-10-12T16:43:14Z
2022-10-12T14:44:22Z,42.805,6.029,13.3019,4.60059,2470.553,2022-10-12T16:46:17Z
2022-10-12T14:47:25Z,42.805,6.029,13.3021,4.60068,2470.553,2022-10-12T16:49:20Z
2022-10-12T14:50:28Z,42.805,6.029,13.3020,4.60062,2470.577,2022-10-12T16:52:23Z
2022-10-12T14:53:31Z,42.805,6.029,13.3022,4.60062,2470.567,2022-10-12T16:55:26Z
2022-10-12T14:56:35Z,42.805,6.029,13.3019,4.60060,2470.553,2022-10-12T16:58:29Z
2022-10-12T14:59:38Z,42.805,6.029,13.3019,4.60073,2470.553,2022-10-12T17:01:33Z
2022-10-12T15:02:41Z,42.805,6.029,13.3021,4.60067,2470.567,2022-10-12T17:04:36Z